www.pogodaiklimat.ru

Погода и климат >> Архив погоды >> Россия >> Камчатский край >> Мыс Лопатка


ПОГОДА на Мысе Лопатка

  • Прогноз погоды на Мысе Лопатка
  • Монитор погоды на Мысе Лопатка

АРХИВ ПОГОДЫ на Мысе Лопатка

Время (UTC), дата Ветер
(напр.,м/с)
 
Видим.   Явления Облачность Т
(С)
Тd
(С)
f
(%)
Тe
(С)
Тes
(С)
Комфортность P
(гПа)
Po
(гПа)
Тmin
(С)
Tmax
(С)
R
(мм)
R24
(мм)
S
(см)
09 20.05 СЗ 10-12
{14}
50 км 8/3 600 м
[Sc Ac As Ci fib]
+4.3 +3.5 95 -3 -3 1013.7 1007.4 +8.4
12 20.05 С 10-11
{12}
20 км 8/1 600 м
[Sc Ac trans Ci sp]
+3.4 +2.9 97 -4 -4 1014.4 1008.1
15 20.05 С 9-11
{13}
2000 м дымка 10/10 100 м
[St]
+3.0 +2.8 99 -4 -4 1014.8 1008.5
18 20.05 С 9-12
{13}
500 м туман ?/? +3.5 +3.4 99 -3 -3 1014.7 1008.4
21 20.05 С 10-12
{12}
200 м туман ?/? +3.9 +3.8 99 -3 -3 1015.6 1009.3 +3.0
00 21.05 С 9-10
{13}
500 м туман ?/? +4.5 +4.3 99 -2 -2 1016.4 1010.1
03 21.05 С 7
{12}
4000 м дымка {туман} 10/10 200 м
[St]
+6.3 +5.4 94 +1 +1 1017.9 1011.6
06 21.05 В 5 20 км {туман} 9/9 600 м
[Sc]
+7.3 +3.0 74 +4 +4 1020.3 1014.2
09 21.05 В 15-18
{19}
50 км 9/9 600 м
[]
+5.2 +2.4 82 -2 -2 1022.4 1016.1 +8.4
12 21.05 В 12-16
{18}
20 км 3/1 600 м
[Sc Ac trans]
+4.3 +1.9 84 -3 -3 1024.1 1017.8
15 21.05 В 12-15
{16}
20 км 9/8 600 м
[Sc Ac trans]
+3.9 +2.0 87 -4 -4 1024.9 1018.6
18 21.05 В 10-12
{15}
50 км 9/0 2000 м
[Ac As]
+3.2 +2.4 94 -4 -4 1025.7 1019.4
21 21.05 В 10-13
{13}
500 м туман ?/? +2.8 +2.6 99 -5 -5 1026.3 1020.0 +2.8
00 22.05 В 13-15
{16}
2000 м в посл. час туман 10/10 100 м
[St]
+3.3 +3.1 99 -5 -5 1026.6 1020.3
03 22.05 ЮВ 10-12
{16}
2000 м дымка 10/10 100 м
[St]
+3.3 +3.2 99 -4 -4 1026.7 1020.4
06 22.05 В 12-14
{15}
4000 м дымка 10/10 200 м
[St]
+3.2 +3.0 99 -5 -5 1025.4 1019.1
09 22.05 В 10-12
{14}
500 м слаб. морось {туман} туман ?/? +2.7 +2.6 99 -5 -5 1025.8 1019.5 +3.5 0.0
12 22.05 В 10-12
{13}
500 м слаб. дождь {морось} туман ?/? +2.7 +2.6 99 -5 -5 1025.4 1019.1
15 22.05 В 11-15
{15}
500 м слаб. морось {дождь} туман ?/? +2.6 +2.6 100 -5 -5 1023.1 1016.8
18 22.05 В 11-14
{17}
500 м туман {дождь} ?/? +2.8 +2.7 99 -5 -5 1021.6 1015.3
21 22.05 ЮВ 12-15
{16}
4000 м в посл. час туман 10/3 200 м
[St Ac As]
+3.5 +3.4 99 -4 -4 1019.5 1013.2 +2.6 2
00 23.05 ЮВ 15-18
{18}
4000 м слаб. дождь {туман} 10/10 200 м
[Frnb Ns]
+3.7 +3.6 99 -5 -5 1016.8 1010.5
03 23.05 ЮВ 13-18
{20}
2000 м дождь 10/10 100 м
[Frnb Ns]
+4.2 +4.1 99 -4 -4 1014.8 1008.5
06 23.05 Ю 8-10
{19}
4000 м слаб. морось {дождь} 10/10 200 м
[St]
+4.0 +3.9 99 -3 -3 1014.2 1007.9
09 23.05 Ю 7
{12}
200 м туман {дождь} ?/? +3.4 +3.3 99 -3 -3 1013.6 1007.3 +4.6 4
12 23.05 ЮВ 7 200 м слаб. морось {дождь} туман ?/? +3.0 +2.9 99 -3 -3 1013.2 1006.9
15 23.05 В 7 200 м туман ?/? +2.8 +2.7 99 -4 -4 1012.0 1005.7
18 23.05 В 8
{14}
500 м туман ?/? +2.7 +2.6 99 -4 -4 1011.8 1005.5
21 23.05 В 13-17
{18}
500 м слаб. дождь {туман} туман ?/? +2.9 +2.9 100 -5 -5 1010.7 1004.5 +2.6 0.9
00 24.05 В 13-18
{19}
4000 м дымка {дождь, туман} 10/10 200 м
[St]
+3.3 +3.2 99 -5 -5 1009.6 1003.4
03 24.05 В 14-17
{20}
2000 м слаб. морось 10/10 100 м
[St]
+3.3 +3.2 99 -5 -5 1008.0 1001.8
06 24.05 В 15-18
{19}
2000 м слаб. морось 10/10 100 м
[St]
+3.2 +3.1 99 -5 -5 1006.7 1000.5
09 24.05 В 14-17
{19}
500 м слаб. дождь {морось} туман ?/? +2.9 +2.9 100 -6 -6 1005.9 999.7 +3.5 0.5
12 24.05 В 10-14
{17}
2000 м слаб. морось {дождь} 10/10 100 м
[St]
+3.1 +3.0 99 -4 -4 1004.9 998.7
15 24.05 В 12-17
{18}
2000 м слаб. дождь {морось} 10/10 100 м
[Frnb Ns]
+3.1 +3.1 100 -5 -5 1002.8 996.6
18 24.05 В 8-10
{17}
20 км {дождь, морось} 10/10 600 м
[Sc]
+3.4 +3.3 99 -3 -3 1002.7 996.5
21 24.05 С 3
{11}
2000 м дымка 10/10 100 м
[St]
+3.9 +3.8 99 -0 -0 1002.3 996.1 +2.9 3
00 25.05 СЗ 4 500 м морось {туман} туман ?/? +4.4 +4.2 99 -0 -0 1001.9 995.7
03 25.05 СЗ 8-10
{10}
4000 м в посл. час туман 10/10 100 м
[St]
+4.2 +4.1 99 -2 -2 1001.5 995.3
06 25.05 СЗ 9-12
{13}
500 м туман ?/? +3.3 +3.2 99 -4 -4 1001.8 995.6
09 25.05 СЗ 13-16
{16}
2000 м дымка {туман} 10/10 100 м
[St]
+2.9 +2.8 99 -5 -5 1003.0 996.8 +4.7 0.4
12 25.05 СЗ 9-11
{16}
500 м туман ?/? +3.0 +2.9 99 -4 -4 1004.8 998.6
15 25.05 СЗ 10-13
{13}
500 м слаб. морось {туман} туман ?/? +2.7 +2.6 99 -5 -5 1006.4 1000.2
18 25.05 СЗ 10-12
{13}
500 м туман ?/? +2.4 +2.4 100 -5 -5 1007.4 1001.2
21 25.05 СЗ 7
{12}
2000 м дымка {туман} 9/9 100 м
[St]
+2.7 +2.7 100 -4 -4 1008.1 1001.9 +2.2 0.7
00 26.05 Ю 3 50 км {туман} 10/0
[Ac As]
+3.5 +3.4 99 -1 +3 1006.9 1000.7
03 26.05 ЮВ 6 50 км 10/0
[Ac As]
+3.4 +3.3 99 -3 -1 1006.1 999.9
06 26.05 В 9-11
{12}
50 км 10/0
[Ac As]
+3.3 +3.2 99 -4 -4 1005.5 999.3
09 26.05 В 11-15
{15}
20 км 10/10 300 м
[Sc]
+3.5 +3.3 99 -4 -4 1005.2 999.0 +4.7
12 26.05 В 13-16
{16}
20 км 8/3 600 м
[Sc Ac trans]
+3.6 +3.1 97 -4 -4 1005.7 999.5
15 26.05 В 7-11
{16}
20 км 9/6 600 м
[Sc Ac trans]
+3.7 +3.2 97 -3 -3 1007.6 1001.4
18 26.05 СЗ 6
{14}
500 м морось {туман} туман ?/? +3.3 +3.1 99 -3 -3 1010.0 1003.8
21 26.05 СЗ 10-12
{13}
2000 м в посл. час туман 10/10 100 м
[St]
+3.6 +3.4 99 -4 -4 1011.7 1005.4 +3.2 0.6
00 27.05 СЗ 13-15
{15}
4000 м в посл. час туман 10/10 200 м
[St]
+4.0 +3.9 99 -4 -4 1013.0 1006.7
03 27.05 СЗ 14-17
{17}
4000 м дымка 10/10 200 м
[St]
+4.8 +3.8 93 -3 -3 1013.4 1007.1
06 27.05 СЗ 12-15
{17}
4000 м дымка 10/10 200 м
[St]
+4.1 +3.3 95 -3 -3 1014.3 1008.0

 

Местоположение метеостанции Мыс Лопатка (Камчатский край, Россия): широта 50.87 долгота 156.60 высота над уровнем моря 50 м.

В архиве по умолчанию представлена погода на Мысе Лопатка за последнюю неделю. Архивные данные за месяц целиком и за предыдущие месяцы, начиная с января 2011 года, Вы можете получить, выбрав интересующий диапазон дат из раскрывающегося списка и нажав кнопку "Ввод!".


*Определитесь, кто Вы:
робот инопланетянин человек

Внимание! Время в таблицах - всемирное. Для получения местного времени необходимо прибавить поправку, которая равна 12 ч.

Смотрите также архив погоды в соседних городах и на ближайших метеорологических станциях:

Погода в Северо-Курильске (Сахалинская область, Россия) (41 км)
Погода в Озерной (Камчатский край, Россия) (69 км)
Погода в Водопадной (Камчатский край, Россия) (144 км)
Погода в Большерецке (Камчатский край, Россия) (219 км)
Погода в Начиках (Камчатский край, Россия) (261 км)
Погода в Петропавловск-Камчатском (Камчатский край, Россия) (261 км)
Погода в Петропавловском Маяке (Камчатский край, Россия) (266 км)
Погода в Сосновке (Камчатский край, Россия) (272 км)
Погода в Петропавловск-Камч. 2 (Камчатский край, Россия) (278 км)
Погода в Пущино (Камчатский край, Россия) (380 км)

Пояснения к столбцам:

Ветер - указаны скорость ветра в м/с - средняя за 10 мин, порывы в срок и между сроками (в фигурных скобках) и направление, откуда дует ветер: С - северный, СВ - северо-восточный, В - восточный, ЮВ - юго-восточный, Ю - южный, ЮЗ - юго-западный, З - западный, СЗ - северо-западный.
Видимость - горизонтальная дальность видимости в метрах или километрах. При видимости от 1 до 10 км при отсутствии осадков обычно наблюдается дымка, при ухудшении видимости до 1 км и менее - туман. В сухую погоду видимость может ухудшаться дымом, пылью или мглою.
Явления - указаны атмосферные явления, наблюдавшиеся в срок или в последний час перед сроком; фигурными скобками обозначены явления, наблюдавшиеся между сроками (за 1-3 часа до срока); квадратными скобками обозначены град или гололедные отложения с указанием их диаметра в мм.
Облачность - указаны через наклонную черту общая и нижняя облачность в баллах и высота нижней границы облаков в метрах; квадратными скобками обозначены формы облаков: Ci - перистые, Cs - перисто-слоистые, Cc - перисто-кучевые, Ac - высококучевые, As - высокослоистые, Sc - слоисто-кучевые, Ns - слоисто-дождевые, Cu - кучевые, Cb - кучево-дождевые. Подробнее классификацию облаков см. в Атласе облаков (PDF).
T - Температура воздуха - температура, измеренная на высоте 2 м над землей.
Td - Температура точки росы - температура, при понижении до которой содержащийся в воздухе водяной пар достигнет насыщения.
f - Относительная влажность воздуха - влажноcть воздуха, измеренная на высоте 2 м над землей.
Te - Эффективная температура - температура, которую ощущает одетый по сезону человек в тени. Характеристика душности погоды. При расчете учитывается влияние влажности воздуха и скорости ветра на теплоощущения человека.
Tes - Эффективная температура на солнце - температура, которую ощущает человек, с поправкой на солнечный нагрев. Характеристика знойности погоды. Зависит от высоты солнца над горизонтом, облачности и скорости ветра. Ночью, в пасмурную погоду, а также при ветре 12 м/с и более поправка равна нулю.
P - Атмосферное давление - приведенное к уровню моря атмосферное давление.
Po - Атмосферное давление - измеренное на уровне метеостанции атмосферное давление.
Tmin - Минимальная температура - минимум температуры воздуха на высоте 2 м над землей.
Tmax - Максимальная температура - максимум температуры воздуха на высоте 2 м над землей.
R - Количество осадков - Количество выпавших осадков за период времени, мм. При наведении курсора мыши на число - период времени, за который выпало указанное количество осадков.
R24 - Количество осадков - Количество выпавших осадков за 24 часа, мм.
S - Снежный покров - Высота снежного покрова, см. При наведении курсора мыши на число - состояние снежного покрова и степень покрытия местности в баллах.